TRANSPORTER-15 U (66684 NORAD) Tracking and Keplerian Element Data

This shows tracking and keplerian element data for the satellite.

Feedback or suggestion? Click here.




ElementValue
Catalog66684
NameTRANSPORTER-15 U
Epoch Orbit323
Epoch Day354.06242216
Epoch Year2025
RAAN65.7072
Inclination97.4485
Eccentricity0.0004333
Argument of Perigee252.8538
Mean Anonmoly107.2221
Mean Motion15.17251438
Decay Rate8.698E-05
L11 66684U 25276U 25354.06242216 .00008698 00000+0 44013-3 0 9999
L22 66684 97.4485 65.7072 0004333 252.8538 107.2221 15.17251438 3232



Live tracking and technical data element details for TRANSPORTER-15 U (NORAD 66684). TRANSPORTER-15 U can be tracked NOW for your location showing map with azimuth and elevation plus other details from your city location.







IsCatalogInMostPopularTable: catalog: 66684, numindb: 11
Update: records affected: 1



GetName: 66684 TRANSPORTER-15 U

Hit Count: updated at: Mon, 20 Apr 2026 10:40:23 GMT